Location: Unspecified
(48.2082°N, 0.0000°E)
Time: 21:42:59
(UTC+00:00)

Altair - Pass Details

Date: 22 June 2019
Orbit: 1501 x 1682 km, 47.2° (Epoch: 21 October)

Event Time Altitude Azimuth Distance (km) Brightness Sun altitude
Rises 22:32:40 0° 268° (W) 4,761 10.3 -15.6°
Reaches altitude 10° 22:35:42 10° 268° (W) 3,800 9.8 -15.8°
Maximum altitude 22:45:28 86° 182° (S) 1,645 7.6 -16.3°
Drops below altitude 10° 22:55:35 10° 95° (E) 3,927 9.4 -16.8°
Sets 22:58:46 0° 95° (E) 4,926 10.0 -17.0°
